Temp
-18 -18 -17 -17 -17 -17 -17 -17 -18 -18 -18 -18 -18 -18 -19 -19 -19 -18 -18 -18 -18 -17 -17 -16 -16 -16 -16 -16 -16 -15 -15 -14 -14 -14 -13 -13 -13 -13 -12 -13 -13 -12 -12
-18 -18 -18 -18 -18 -17 -17 -17 -18 -18 -18 -18 -18 -18 -18 -18 -19 -19 -19 -18 -18 -17 -17 -17 -17 -16 -16 -16 -16 -16 -15 -15 -15 -14 -14 -14 -13 -13 -13 -13 -13 -13 -12
-18 -18 -18 -18 -18 -18 -18 -18 -18 -18 -19 -19 -18 -18 -18 -18 -19 -19 -19 -19 -18 -18 -17 -17 -17 -16 -16 -16 -16 -16 -16 -15 -15 -15 -15 -14 -14 -13 -13 -13 -13 -12 -13
-18 -18 -18 -18 -18 -19 -18 -18 -18 -18 -18 -19 -19 -18 -18 -18 -18 -18 -19 -19 -18 -18 -18 -18 -17 -17 -16 -16 -16 -16 -15 -16 -16 -15 -15 -15 -14 -14 -14 -13 -13 -13 -12
-17 -18 -18 -18 -19 -19 -18 -18 -18 -18 -18 -19 -18 -19 -18 -18 -18 -18 -19 -19 -18 -18 -18 -18 -18 -17 -17 -16 -16 -16 -16 -16 -16 -16 -16 -15 -15 -15 -14 -14 -13 -13 -14
-18 -18 -18 -19 -18 -18 -18 -18 -18 -18 -18 -18 -18 -18 -18 -18 -18 -18 -18 -19 -18 -18 -18 -18 -18 -18 -17 -17 -16 -16 -16 -16 -16 -16 -16 -16 -15 -15 -15 -14 -14 -14 -14
-18 -18 -18 -18 -18 -19 -18 -18 -18 -18 -18 -18 -18 -18 -18 -18 -18 -18 -18 -18 -18 -18 -18 -18 -18 -18 -17 -17 -17 -17 -16 -16 -16 -16 -16 -16 -16 -16 -15 -15 -14 -14 -14
-18 -18 -18 -18 -18 -18 -18 -18 -18 -18 -18 -18 -18 -18 -18 -18 -18 -18 -18 -19 -18 -18 -18 -18 -17 -17 -17 -17 -17 -17 -17 -17 -16 -16 -16 -16 -16 -16 -16 -16 -15 -15 -14
-18 -18 -18 -18 -18 -18 -18 -18 -18 -18 -18 -19 -18 -18 -18 -17 -18 -18 -18 -18 -18 -19 -18 -18 -18 -18 -17 -17 -17 -17 -17 -17 -17 -17 -17 -17 -16 -16 -16 -16 -16 -15 -15
-18 -18 -18 -18 -18 -18 -18 -18 -18 -18 -18 -18 -18 -19 -18 -18 -18 -17 -18 -18 -18 -18 -18 -18 -18 -19 -18 -18 -18 -18 -18 -17 -17 -17 -17 -17 -17 -17 -16 -16 -16 -16 -15
-18 -18 -18 -18 -19 -19 -19 -19 -19 -19 -18 -18 -18 -18 -18 -18 -18 -18 -17 -18 -19 -18 -18 -19 -19 -19 -19 -19 -19 -18 -18 -18 -17 -17 -17 -17 -17 -17 -17 -17 -16 -16 -16
-19 -19 -18 -19 -19 -19 -19 -19 -19 -19 -19 -19 -19 -19 -19 -19 -19 -18 -18 -18 -18 -20 -19 -19 -19 -19 -19 -20 -20 -20 -19 -19 -18 -18 -17 -17 -17 -17 -17 -17 -17 -17 -16
-19 -19 -19 -19 -19 -19 -20 -20 -20 -20 -20 -19 -19 -20 -20 -20 -20 -20 -19 -19 -19 -20 -20 -20 -20 -20 -20 -20 -20 -20 -20 -20 -19 -19 -18 -18 -17 -17 -17 -17 -17 -17 -16
-19 -19 -19 -19 -19 -20 -20 -20 -20 -20 -20 -20 -20 -20 -20 -20 -21 -21 -21 -21 -20 -20 -20 -20 -20 -20 -20 -20 -20 -21 -21 -21 -20 -19 -19 -18 -18 -17 -17 -17 -17 -18 -17
-20 -20 -20 -20 -20 -20 -20 -20 -20 -20 -20 -21 -21 -21 -21 -21 -21 -21 -21 -21 -21 -21 -20 -21 -21 -20 -21 -21 -20 -20 -20 -21 -21 -20 -19 -19 -18 -18 -17 -18 -18 -18 -18
-20 -20 -20 -20 -20 -20 -20 -21 -21 -21 -21 -21 -21 -22 -22 -22 -22 -22 -22 -22 -21 -21 -21 -21 -21 -21 -21 -21 -21 -20 -20 -21 -21 -21 -20 -20 -19 -18 -18 -18 -18 -18 -18
-20 -20 -20 -20 -20 -21 -21 -21 -21 -22 -22 -23 -23 -23 -24 -24 -24 -24 -24 -24 -24 -23 -22 -21 -21 -21 -22 -22 -21 -21 -21 -21 -21 -21 -20 -20 -20 -19 -18 -18 -18 -18 -18
-20 -20 -21 -21 -21 -21 -21 -22 -23 -23 -24 -24 -25 -25 -25 -26 -26 -26 -26 -26 -25 -25 -25 -24 -23 -23 -23 -23 -23 -22 -21 -21 -21 -21 -21 -20 -20 -20 -19 -18 -18 -18 -19
-21 -21 -21 -22 -22 -22 -22 -23 -24 -25 -25 -25 -26 -26 -26 -27 -27 -27 -27 -27 -26 -26 -26 -26 -26 -25 -24 -24 -24 -23 -23 -22 -22 -21 -21 -21 -20 -20 -19 -19 -18 -18 -18
-21 -22 -22 -22 -22 -23 -23 -24 -25 -25 -25 -26 -27 -27 -27 -28 -28 -28 -28 -27 -27 -27 -27 -27 -27 -26 -26 -26 -25 -24 -23 -23 -22 -22 -22 -21 -20 -20 -20 -19 -19 -19 -18
-22 -22 -22 -23 -23 -23 -24 -25 -25 -25 -26 -27 -28 -28 -29 -29 -29 -29 -29 -29 -28 -28 -28 -28 -27 -27 -27 -26 -26 -25 -24 -24 -23 -23 -22 -22 -21 -20 -20 -19 -19 -19 -19
-23 -23 -23 -23 -23 -24 -25 -25 -25 -26 -27 -28 -29 -29 -30 -30 -30 -30 -30 -30 -29 -29 -28 -28 -28 -27 -27 -27 -26 -25 -25 -24 -24 -23 -23 -22 -21 -21 -20 -20 -19 -19 -19
-23 -23 -23 -23 -23 -24 -25 -26 -26 -27 -28 -28 -29 -30 -30 -31 -31 -31 -31 -31 -30 -30 -29 -29 -28 -27 -27 -27 -26 -25 -25 -24 -24 -24 -23 -23 -22 -21 -21 -20 -20 -19 -19
-23 -23 -23 -23 -24 -24 -25 -26 -26 -27 -28 -28 -30 -31 -31 -31 -31 -31 -31 -31 -31 -30 -30 -29 -28 -27 -27 -27 -26 -26 -25 -25 -24 -25 -24 -23 -22 -22 -21 -21 -20 -20 -20
-23 -23 -23 -23 -24 -25 -26 -27 -27 -27 -28 -29 -30 -30 -31 -31 -32 -31 -31 -31 -31 -31 -30 -29 -28 -27 -27 -27 -26 -26 -25 -25 -25 -24 -24 -24 -23 -22 -22 -21 -20 -20 -20
-23 -23 -23 -23 -24 -25 -26 -27 -27 -27 -28 -29 -30 -30 -30 -31 -30 -30 -30 -30 -30 -30 -30 -28 -27 -27 -27 -27 -26 -26 -25 -25 -24 -24 -24 -24 -24 -23 -22 -21 -20 -20 -20
Height
5721 5719 5717 5714 5713 5711 5710 5710 5709 5709 5710 5712 5714 5715 5716 5718 5721 5724 5727 5730 5733 5737 5740 5742 5744 5746 5750 5754 5757 5761 5764 5768 5772 5776 5780 5783 5787 5791 5794 5797 5798 5800 5803
5716 5712 5709 5707 5705 5703 5701 5701 5701 5701 5701 5703 5704 5705 5706 5709 5711 5714 5716 5719 5723 5726 5730 5732 5735 5738 5741 5744 5748 5752 5755 5760 5764 5768 5772 5776 5780 5783 5787 5790 5793 5795 5797
5710 5707 5704 5700 5698 5696 5694 5693 5692 5693 5692 5692 5695 5695 5697 5699 5702 5705 5706 5709 5712 5715 5719 5723 5726 5730 5732 5735 5739 5743 5747 5751 5756 5760 5764 5769 5773 5777 5780 5783 5787 5791 5791
5704 5700 5697 5694 5691 5689 5686 5685 5685 5685 5685 5683 5685 5686 5687 5690 5692 5694 5697 5699 5701 5705 5708 5712 5716 5720 5723 5726 5729 5733 5737 5742 5747 5752 5756 5760 5765 5769 5772 5775 5781 5785 5778
5696 5693 5691 5688 5684 5682 5681 5679 5678 5677 5677 5676 5675 5675 5677 5679 5681 5683 5687 5689 5691 5694 5697 5701 5705 5709 5713 5716 5720 5723 5727 5731 5737 5742 5746 5751 5755 5759 5764 5767 5772 5775 5777
5690 5687 5684 5681 5678 5676 5674 5672 5671 5670 5670 5669 5667 5667 5667 5668 5669 5671 5675 5678 5680 5683 5686 5690 5693 5697 5701 5705 5709 5713 5717 5721 5725 5730 5736 5741 5746 5750 5755 5759 5763 5768 5772
5684 5681 5678 5675 5672 5669 5666 5664 5662 5662 5661 5659 5658 5659 5658 5658 5658 5660 5664 5666 5669 5672 5675 5678 5681 5685 5690 5694 5698 5702 5706 5710 5714 5719 5724 5730 5736 5741 5745 5750 5755 5759 5762
5678 5674 5671 5668 5665 5662 5660 5657 5654 5651 5650 5649 5647 5647 5647 5649 5649 5650 5650 5652 5656 5659 5663 5666 5669 5672 5677 5681 5686 5691 5695 5699 5703 5708 5712 5718 5724 5730 5735 5740 5745 5750 5754
5669 5666 5663 5660 5657 5654 5651 5648 5645 5643 5640 5638 5634 5633 5633 5634 5635 5636 5637 5639 5642 5644 5647 5650 5654 5659 5664 5669 5673 5678 5683 5688 5693 5697 5701 5707 5712 5718 5724 5730 5735 5740 5745
5660 5657 5654 5650 5646 5643 5639 5636 5632 5630 5628 5626 5623 5620 5617 5617 5617 5620 5622 5622 5624 5628 5632 5636 5640 5644 5649 5654 5659 5664 5669 5675 5681 5686 5690 5695 5701 5707 5713 5718 5724 5729 5735
5652 5647 5643 5638 5634 5629 5625 5621 5617 5614 5612 5610 5608 5606 5603 5602 5600 5600 5602 5605 5607 5608 5612 5618 5624 5629 5633 5638 5644 5650 5655 5659 5665 5672 5678 5684 5689 5695 5701 5707 5712 5718 5724
5641 5636 5631 5626 5620 5615 5611 5606 5602 5597 5593 5591 5589 5588 5587 5585 5583 5581 5582 5584 5587 5593 5594 5599 5603 5610 5617 5623 5628 5634 5641 5646 5652 5658 5664 5670 5675 5682 5688 5695 5701 5706 5712
5631 5625 5618 5612 5606 5600 5595 5590 5585 5581 5577 5574 5570 5567 5565 5564 5563 5562 5561 5562 5565 5571 5577 5580 5585 5590 5596 5605 5612 5618 5624 5630 5638 5644 5651 5656 5662 5668 5674 5682 5689 5695 5700
5621 5614 5607 5600 5593 5586 5580 5574 5568 5562 5557 5553 5549 5545 5543 5540 5539 5538 5539 5539 5542 5547 5555 5562 5565 5571 5577 5585 5593 5600 5607 5614 5622 5630 5637 5644 5649 5655 5661 5668 5676 5683 5689
5608 5602 5594 5587 5579 5571 5563 5556 5548 5542 5537 5530 5526 5522 5519 5516 5514 5513 5513 5515 5517 5522 5531 5540 5546 5550 5557 5566 5574 5582 5591 5600 5606 5614 5622 5630 5636 5642 5648 5656 5664 5672 5678
5597 5589 5581 5573 5564 5555 5546 5538 5530 5523 5516 5507 5501 5496 5492 5489 5486 5486 5486 5488 5490 5495 5503 5515 5522 5530 5537 5545 5555 5565 5575 5584 5592 5600 5608 5616 5624 5630 5636 5644 5652 5661 5668
5586 5577 5568 5559 5549 5540 5531 5522 5512 5502 5494 5486 5478 5472 5467 5462 5460 5459 5459 5461 5464 5468 5474 5488 5497 5506 5515 5523 5533 5545 5555 5568 5578 5586 5595 5603 5612 5619 5626 5633 5641 5650 5657
5575 5565 5555 5545 5536 5526 5515 5505 5495 5485 5475 5465 5456 5448 5443 5438 5436 5435 5435 5437 5440 5444 5450 5462 5471 5481 5493 5503 5513 5524 5538 5550 5563 5572 5582 5591 5600 5608 5614 5622 5630 5639 5646
5564 5554 5543 5534 5523 5511 5500 5489 5479 5467 5457 5446 5436 5427 5421 5416 5414 5412 5413 5415 5418 5422 5429 5439 5449 5458 5471 5484 5494 5507 5520 5533 5547 5558 5569 5579 5587 5596 5603 5610 5618 5627 5635
5555 5544 5533 5522 5510 5498 5487 5476 5464 5452 5439 5427 5417 5409 5402 5397 5395 5393 5393 5395 5399 5404 5410 5418 5429 5441 5453 5466 5478 5493 5506 5519 5533 5544 5556 5567 5575 5583 5592 5600 5608 5615 5623
5546 5535 5524 5512 5499 5487 5476 5464 5451 5438 5426 5414 5402 5394 5387 5381 5378 5377 5378 5380 5382 5386 5392 5401 5412 5426 5437 5450 5466 5479 5493 5506 5519 5530 5542 5554 5565 5573 5582 5589 5597 5604 5612
5540 5528 5516 5504 5490 5479 5467 5454 5441 5428 5415 5402 5391 5381 5374 5369 5366 5365 5365 5366 5369 5373 5378 5385 5397 5411 5424 5437 5450 5466 5480 5493 5505 5519 5532 5544 5553 5563 5571 5579 5586 5594 5602
5535 5523 5511 5498 5485 5473 5460 5447 5433 5420 5407 5394 5382 5372 5364 5360 5356 5355 5356 5357 5360 5363 5368 5374 5387 5402 5415 5427 5440 5456 5472 5487 5502 5513 5522 5533 5544 5553 5561 5569 5576 5584 5592
5531 5519 5507 5494 5480 5469 5456 5442 5428 5415 5401 5389 5376 5366 5358 5353 5349 5348 5350 5351 5354 5358 5362 5369 5379 5392 5406 5420 5435 5450 5466 5481 5493 5502 5513 5523 5533 5543 5552 5560 5568 5575 5583
5527 5515 5504 5491 5477 5465 5453 5440 5426 5413 5399 5385 5374 5364 5356 5350 5345 5345 5349 5352 5355 5358 5361 5367 5377 5392 5406 5419 5431 5444 5461 5475 5486 5498 5507 5517 5527 5535 5544 5552 5560 5568 5576
5524 5513 5502 5490 5476 5463 5451 5439 5425 5413 5399 5386 5376 5368 5361 5357 5354 5355 5359 5362 5363 5365 5368 5373 5384 5397 5411 5421 5433 5447 5459 5473 5483 5493 5503 5512 5520 5527 5537 5545 5552 5560 5568
Wind_Speed
33 32 32 32 33 30 30 30 32 36 37 40 39 38 40 42 44 47 47 45 44 42 44 43 43 43 41 40 40 39 39 39 39 38 37 36 35 34 33 28 29 30 30
29 29 31 33 35 33 32 31 33 35 41 43 41 37 35 41 42 45 48 48 48 46 45 45 43 43 43 42 42 41 40 40 39 39 38 37 36 36 35 34 28 29 31
29 31 29 30 31 32 34 32 35 35 36 43 41 40 39 38 40 41 46 48 49 48 46 45 45 44 43 44 44 44 42 41 40 40 39 38 37 37 37 37 35 26 29
31 31 30 30 31 28 30 31 32 35 34 39 43 43 42 42 42 42 42 45 47 47 48 46 46 46 47 47 48 47 46 43 41 40 40 40 40 39 39 40 38 36 21
34 32 28 26 28 29 28 30 31 32 32 33 40 43 43 43 43 44 40 40 42 44 45 46 44 45 46 47 47 48 48 48 46 43 41 41 41 41 40 42 42 42 42
32 31 31 30 29 29 29 29 30 32 31 32 33 34 37 43 44 43 41 43 43 42 43 43 44 44 44 46 47 48 48 48 47 47 46 44 42 42 42 43 44 44 33
30 30 31 31 29 29 31 32 32 33 35 36 37 36 37 39 41 46 47 45 46 48 47 46 46 46 46 45 45 45 46 49 50 50 48 48 47 44 43 45 45 46 47
31 31 31 32 33 33 32 33 35 38 38 40 42 42 42 42 42 43 46 47 52 55 55 53 52 52 51 50 49 48 47 46 47 50 52 51 48 47 48 46 47 48 48
34 35 35 36 37 38 39 40 40 39 40 42 45 47 47 47 48 49 49 49 51 53 54 55 55 56 55 54 51 51 52 51 50 48 47 47 47 50 48 49 49 49 49
40 40 41 42 43 45 46 46 47 46 46 46 47 49 51 52 53 53 55 58 58 57 57 56 55 52 53 55 56 56 55 52 54 53 51 49 47 45 46 48 50 51 50
44 45 46 48 49 50 48 48 48 49 50 51 52 52 54 55 56 58 57 57 59 62 64 61 60 58 55 55 54 54 56 58 57 56 57 55 52 51 48 46 48 51 52
46 48 51 52 52 51 52 52 52 51 52 53 54 55 56 58 60 62 63 64 64 61 63 62 65 64 62 59 58 57 55 54 56 55 58 61 61 60 57 54 50 49 53
50 52 53 53 54 55 53 52 52 52 54 56 58 60 61 61 62 65 67 69 69 67 64 65 63 64 64 62 64 62 59 58 57 54 54 54 56 58 59 58 54 49 51
50 50 51 51 51 52 52 53 55 57 59 61 63 65 67 68 68 69 70 71 71 71 69 68 66 67 66 64 62 63 64 60 59 58 55 53 52 54 54 56 53 48 47
47 47 51 51 52 54 55 57 59 61 62 63 64 66 68 69 70 71 72 73 74 73 72 70 69 70 69 69 66 64 61 58 57 57 57 53 53 53 53 54 52 48 44
47 51 53 53 54 56 57 55 56 61 64 66 66 67 67 67 69 70 72 74 76 78 76 73 73 72 72 71 71 69 65 61 59 55 54 53 53 52 54 54 52 50 47
50 53 53 54 54 51 53 58 59 58 58 60 63 65 64 63 62 62 64 66 68 73 77 76 75 75 73 74 72 71 72 65 59 57 53 53 52 51 54 54 53 51 48
54 54 53 50 51 54 56 53 53 56 58 58 57 58 56 56 56 57 59 60 63 66 67 67 70 70 70 70 69 71 70 70 67 62 56 55 55 52 53 55 54 52 52
54 54 49 51 52 55 50 51 53 53 55 56 54 51 51 52 51 52 53 55 56 58 61 61 59 62 64 64 67 66 65 65 66 66 61 58 58 57 53 53 55 55 53
53 49 49 48 54 49 48 50 51 54 54 52 48 44 42 43 45 46 46 46 49 51 54 56 56 54 57 60 64 62 60 60 61 65 65 60 60 60 55 50 51 53 55
47 47 45 51 51 46 48 47 51 53 51 51 47 40 37 36 36 37 37 38 40 43 47 51 52 52 51 58 61 61 58 57 58 61 64 61 58 59 55 51 49 51 54
45 45 47 52 48 45 45 48 50 49 49 49 43 37 32 29 29 28 29 29 31 32 37 43 49 49 48 53 61 60 56 56 55 58 59 58 57 57 55 51 47 47 51
44 45 47 52 43 42 43 48 49 47 48 45 39 33 27 24 21 20 20 21 22 24 27 35 42 43 47 49 56 58 55 51 48 50 53 55 53 54 54 51 46 45 48
44 43 46 49 41 40 41 45 47 44 47 39 35 27 21 17 15 14 13 14 17 17 21 26 38 42 44 45 48 55 54 49 46 46 46 51 52 52 52 50 46 44 48
40 40 43 47 41 37 39 42 43 44 45 37 32 25 18 15 7 4 8 12 11 8 14 23 32 41 39 39 44 50 52 48 46 45 42 44 47 51 50 48 45 45 49
36 38 42 45 43 37 38 40 41 42 43 35 31 22 18 16 26 27 25 20 14 14 14 21 29 35 32 34 38 42 47 44 47 51 52 45 49 51 49 47 46 47 49
Wind_Direction
303 296 286 280 278 274 273 279 279 264 259 257 263 262 251 248 246 246 249 248 249 249 246 245 245 245 244 244 244 242 242 241 239 237 235 233 230 232 232 234 241 249 243
309 303 294 288 281 274 273 276 277 269 261 261 260 261 256 251 247 247 247 246 248 250 246 245 243 244 245 244 243 244 243 241 240 239 237 235 233 231 230 229 236 247 247
309 306 299 288 282 279 277 274 274 273 263 260 260 261 258 256 251 251 246 249 249 247 246 244 245 245 243 244 244 243 243 244 240 239 239 238 235 232 230 231 229 243 250
309 311 300 292 287 280 276 276 271 270 270 260 259 259 259 259 259 253 252 249 248 248 249 247 242 243 244 243 244 244 244 243 243 241 238 238 237 235 231 230 228 222 231
306 309 308 302 293 287 280 276 275 272 271 268 261 257 257 256 254 254 252 251 251 249 248 248 248 244 243 244 245 245 244 244 242 241 241 238 237 235 233 232 229 231 240
303 304 304 303 298 295 289 282 278 273 270 268 269 267 264 261 259 255 251 249 248 249 248 247 247 245 241 240 241 241 241 242 243 244 241 239 238 237 233 232 232 229 217
303 303 303 297 295 293 290 287 283 277 276 276 274 271 264 264 266 262 259 255 252 251 250 249 247 247 245 242 240 240 240 240 241 241 242 240 238 237 235 232 232 233 231
300 299 300 301 301 298 289 285 284 283 279 276 275 273 271 269 262 259 258 257 256 256 254 254 251 249 246 246 244 242 239 240 240 241 240 240 240 238 237 234 232 233 236
303 299 299 298 298 296 294 290 284 279 277 276 277 275 273 269 268 266 262 256 253 253 253 253 250 249 249 247 245 243 241 237 237 237 239 238 238 239 238 237 235 234 235
306 302 300 300 298 297 295 292 288 284 280 275 274 275 275 274 270 265 263 263 261 255 251 251 251 249 250 246 244 243 242 240 237 236 235 239 240 237 238 238 237 235 235
301 299 300 300 300 300 298 295 292 287 283 279 275 273 272 272 271 269 265 261 258 259 257 252 248 246 246 247 246 243 241 240 238 237 237 239 240 239 240 241 239 237 234
302 301 302 301 301 299 296 294 292 291 287 284 279 275 272 271 270 267 264 263 261 255 256 253 252 247 243 241 243 243 242 240 240 239 240 241 242 241 241 243 239 237 235
303 304 303 303 301 299 296 294 291 289 285 282 280 278 276 273 270 266 264 262 259 255 251 252 249 248 245 241 238 238 240 241 240 239 239 240 241 239 238 237 237 236 235
305 306 306 305 302 301 299 296 293 290 288 285 283 281 279 276 271 267 263 261 258 255 250 248 249 247 245 242 238 237 237 239 241 240 238 239 238 236 236 232 232 233 233
309 311 310 308 306 303 301 298 295 292 289 287 284 280 277 274 270 267 263 260 257 254 250 247 244 246 245 243 241 238 235 236 237 237 236 237 237 236 234 228 228 228 231
312 314 313 310 307 305 302 300 298 294 291 288 286 283 280 277 272 267 263 261 258 255 250 246 245 243 243 244 241 240 239 236 236 236 236 233 234 235 231 226 225 226 229
316 315 312 311 309 307 305 304 301 298 296 294 291 286 282 278 273 268 263 259 256 254 252 247 245 243 240 240 240 237 237 236 234 235 235 235 230 232 229 225 224 225 227
314 316 316 314 313 312 312 308 307 304 300 297 294 289 283 278 273 269 264 260 256 253 250 247 244 241 238 236 236 236 234 233 232 233 232 233 231 228 229 227 226 227 225
322 320 317 316 317 319 317 315 311 308 305 304 300 294 287 278 274 268 264 260 256 254 250 244 241 238 234 229 231 232 232 230 228 230 229 230 230 228 228 229 229 226 225
324 320 318 322 326 325 322 319 315 315 314 312 309 301 290 282 276 269 263 258 255 252 248 242 236 233 230 223 223 226 227 227 224 225 225 226 227 228 227 229 227 224 224
324 324 327 331 331 331 324 322 324 321 318 317 315 310 299 287 279 271 263 259 254 250 245 238 232 227 224 219 217 219 220 220 219 220 221 221 224 226 228 228 228 224 224
334 333 335 336 336 330 329 330 328 325 325 324 319 313 304 293 282 271 263 258 253 248 241 234 226 220 215 214 214 212 210 211 213 217 218 217 221 223 225 226 228 225 225
338 338 340 341 337 336 336 336 336 334 335 335 330 321 310 301 290 274 265 259 251 241 233 227 217 213 212 211 210 208 208 210 211 215 217 217 219 223 223 225 227 225 223
342 342 344 346 343 342 342 342 342 341 340 340 341 336 328 314 294 270 257 247 232 226 217 211 203 201 200 203 203 201 204 207 212 212 213 213 217 220 222 224 226 223 218
344 347 350 352 349 347 346 350 347 349 347 348 352 354 5 11 355 114 119 123 132 172 196 198 192 190 191 196 197 197 200 200 201 206 207 213 216 220 221 223 225 221 216
352 354 358 1 360 354 352 355 356 355 357 1 8 19 46 68 94 103 101 106 104 101 116 154 163 167 173 175 184 187 190 185 203 203 206 209 217 221 220 222 225 220 216